Wind_Speed
121 122 123 123 124 124 125 126 127 127 127 128 128 129 129 129 129 129 130 130 130 130 131 131 131 132 132 132 132 133 133 133 134 134 134 134 134 134 135 135 135 135 136 137 137 138 138 139 140 140 140 140 140 139 139 139 138 138 138 138 137 137 137 137 135 131 128 129 130 129 130 132 132 132 132 132 132 132 132 131 129 129 128 128 127
123 124 125 125 126 126 126 127 127 127 128 128 129 129 129 129 130 130 130 130 130 130 131 131 131 132 132 133 133 133 134 134 134 135 135 135 135 135 135 135 135 135 136 136 137 138 138 139 139 140 141 141 141 141 141 141 140 140 139 139 138 138 138 137 136 133 129 128 129 129 129 130 131 131 131 132 131 131 131 130 129 129 128 128 127
123 124 124 125 125 126 126 127 127 127 128 128 129 130 130 130 130 131 131 131 131 131 131 131 132 132 132 133 133 133 133 134 134 134 134 134 135 135 135 135 135 135 135 135 136 136 137 137 138 139 140 140 141 141 141 141 141 141 140 140 139 139 139 138 137 134 131 129 129 130 130 130 131 131 131 131 131 130 130 130 130 129 129 128 128
122 123 123 124 124 125 126 126 127 127 128 129 129 130 130 130 131 131 131 131 131 131 131 131 131 132 132 132 132 132 132 132 132 133 133 133 133 134 134 134 134 134 134 134 134 135 135 136 136 137 138 138 138 139 140 140 140 140 140 140 140 140 140 140 139 137 134 131 129 129 130 131 131 131 132 132 132 132 131 131 131 131 131 130 129
120 121 121 122 123 124 124 125 126 127 128 128 129 129 130 130 130 130 130 130 130 130 130 130 130 131 131 131 131 132 132 132 132 133 133 133 133 133 133 133 133 133 133 134 134 134 134 134 135 136 136 136 136 137 138 139 139 139 139 140 140 140 141 140 140 139 137 134 131 130 131 131 131 132 132 132 132 132 131 131 131 131 131 131 131
118 119 120 120 121 122 122 123 124 125 126 127 127 128 128 129 129 129 129 129 129 130 130 130 130 130 131 131 131 132 132 132 132 133 133 133 134 134 133 133 134 133 134 134 134 134 134 134 134 134 135 135 135 135 136 137 137 138 138 138 139 139 140 140 140 139 138 135 132 131 131 131 132 132 132 132 132 132 131 131 131 130 130 130 130
117 118 118 119 120 120 121 121 122 122 123 123 124 125 125 126 127 127 128 128 129 129 130 130 131 131 131 131 131 132 132 132 133 133 133 134 134 134 134 133 133 133 133 133 133 133 133 133 132 133 133 133 133 133 134 134 135 135 135 136 136 137 137 137 137 138 137 136 134 132 131 131 132 132 132 132 133 132 132 132 131 131 130 130 130
116 116 117 117 118 118 119 120 120 120 121 121 122 122 123 124 125 126 127 127 128 129 129 130 130 131 131 131 131 132 132 132 133 133 133 134 134 134 134 134 133 133 133 133 133 133 133 132 132 132 132 132 132 132 132 133 133 133 133 133 134 134 134 135 135 135 136 135 134 133 132 131 131 131 132 133 133 133 134 134 133 131 131 131 131
114 115 115 116 116 117 118 118 119 120 120 121 122 122 123 124 124 125 126 127 127 128 128 129 129 130 130 131 131 131 131 131 132 133 133 134 134 134 133 133 133 133 132 132 132 132 132 132 132 132 133 133 133 133 132 132 132 132 132 132 133 133 133 133 133 133 134 133 133 132 132 131 130 130 131 132 133 134 134 135 134 132 131 131 130
114 114 115 115 116 117 117 118 119 119 120 121 122 122 123 124 124 125 126 126 127 127 127 127 128 128 128 129 129 130 130 130 131 132 133 133 134 133 133 132 132 131 131 130 131 131 132 132 132 132 133 133 133 132 132 132 131 131 131 131 132 132 132 131 132 132 131 131 131 130 130 130 129 129 130 130 132 133 133 134 133 132 130 130 128
113 114 115 115 116 117 118 118 119 120 120 121 121 122 122 123 123 123 124 125 125 126 126 127 127 127 128 128 129 129 130 130 131 131 132 132 132 132 131 131 130 130 129 129 130 131 131 131 132 131 131 131 132 131 131 131 131 130 130 130 130 130 130 130 130 130 130 129 129 128 128 128 128 128 128 129 130 131 132 132 131 130 129 128 127
113 113 114 115 116 116 117 117 118 119 119 120 120 121 121 121 122 122 123 123 124 125 126 127 127 128 128 128 129 129 130 131 131 132 132 132 132 131 130 129 129 128 129 129 130 130 130 130 130 130 130 131 131 131 131 130 130 130 129 129 129 129 128 128 128 128 128 128 127 127 127 127 127 127 127 128 129 130 130 129 129 128 127 127 126
111 112 113 113 114 115 115 116 117 118 118 119 120 120 121 121 122 122 123 123 124 125 126 126 127 127 128 128 129 129 130 131 132 132 133 133 133 132 131 129 128 128 129 129 129 129 129 129 129 129 130 130 130 130 130 130 130 129 129 129 128 128 128 127 127 126 126 126 126 126 125 126 127 126 126 127 129 129 128 127 126 126 125 125 124
110 111 112 113 114 114 115 116 117 118 118 119 120 121 121 122 123 123 124 124 125 125 126 127 127 128 128 128 129 129 130 131 132 132 133 133 134 133 131 129 128 128 128 128 128 128 128 128 128 128 129 129 130 130 130 130 129 129 129 128 127 127 126 125 124 124 124 124 124 124 124 125 125 125 124 125 126 126 125 124 123 123 123 122 121
110 111 112 113 114 115 116 117 118 119 119 120 121 122 122 123 123 124 124 125 125 126 127 127 128 128 129 129 129 129 130 131 131 132 132 133 133 133 131 130 128 128 127 127 127 127 127 127 127 127 127 128 128 128 128 128 128 128 127 126 125 124 123 122 122 122 122 122 121 121 121 122 123 123 122 122 123 124 123 122 120 119 119 118 117
110 111 113 114 115 116 116 117 118 119 120 120 121 122 122 123 123 124 125 125 126 126 126 127 127 128 128 128 128 128 129 130 130 131 131 132 132 131 130 129 128 126 125 125 125 124 124 124 124 124 124 124 125 126 126 126 126 125 124 123 121 120 119 118 119 119 119 119 119 119 119 119 120 120 120 120 121 122 121 119 116 115 115 115 114
110 112 113 114 115 116 116 117 118 118 119 120 121 121 122 122 123 123 123 124 124 125 125 125 125 126 126 126 126 126 127 127 128 128 128 129 128 127 126 125 124 123 122 121 120 120 120 121 121 121 121 121 123 124 124 125 124 122 120 118 117 116 115 115 116 117 117 117 118 118 117 117 117 118 117 117 117 118 118 115 113 113 113 112 110
111 112 113 114 115 115 116 116 117 117 118 119 119 120 120 120 121 121 121 121 121 122 122 123 123 123 123 123 123 123 123 124 124 124 125 125 125 124 122 121 120 119 118 118 117 118 118 118 118 118 118 119 120 121 122 122 120 118 116 114 113 113 113 113 113 114 115 116 116 116 116 115 115 115 114 114 114 114 114 112 110 110 110 108 106
110 111 112 113 114 114 115 115 115 116 116 117 118 118 118 119 119 120 120 120 119 120 120 120 120 120 120 120 120 120 120 120 120 120 121 121 121 120 118 116 115 114 114 114 114 114 114 114 115 115 115 116 117 117 118 118 116 113 111 111 111 111 111 111 111 112 113 113 113 113 113 113 113 112 112 112 112 111 110 109 107 106 106 104 103
109 110 111 112 112 113 114 114 114 114 115 115 116 116 117 117 117 117 117 117 117 117 117 117 117 117 117 117 116 116 115 115 115 115 116 116 116 115 113 111 110 110 110 110 110 110 111 112 112 112 112 112 112 113 114 112 110 108 108 108 108 108 107 108 109 109 110 110 111 111 110 110 110 109 109 110 109 108 108 107 105 103 101 100 100
109 110 111 111 112 112 113 113 113 113 113 113 113 114 114 114 114 114 114 113 113 112 112 112 112 112 112 112 112 112 111 111 111 111 112 112 113 112 109 107 107 106 106 106 107 108 109 109 109 109 109 109 109 109 109 107 106 106 106 105 104 103 104 105 106 106 107 107 108 107 107 106 106 107 107 107 106 105 105 104 103 100 98 98 97
109 109 110 110 111 111 111 111 111 111 111 111 110 110 110 110 110 109 109 108 108 108 108 108 108 108 109 110 110 110 109 109 108 109 110 110 110 109 107 105 104 104 103 103 104 105 106 107 107 107 107 107 106 105 104 104 103 103 103 101 100 101 102 103 103 103 103 104 104 104 103 103 104 105 105 104 102 102 102 100 99 98 96 95 94
107 107 108 108 109 109 108 108 108 108 108 107 107 106 106 106 106 106 105 105 105 105 105 105 106 106 106 107 107 107 107 106 106 107 107 107 108 107 104 102 101 101 100 100 100 102 103 104 105 105 105 105 103 101 100 101 101 100 99 99 98 98 99 99 99 99 100 100 101 101 100 101 102 102 101 100 100 99 98 97 95 94 93 92 91
104 104 105 105 105 105 105 105 105 105 105 104 104 103 103 103 103 103 102 102 101 101 101 102 102 102 102 103 104 104 104 104 104 104 104 104 104 104 102 100 99 98 96 96 96 98 99 100 101 103 103 102 99 98 97 98 98 98 97 96 96 96 95 95 95 95 96 97 98 98 98 99 99 99 98 98 97 96 95 93 91 90 90 89 88
101 102 102 102 102 102 102 102 102 102 102 101 101 101 100 100 100 100 99 99 98 98 98 98 98 98 98 98 99 100 100 100 101 100 100 100 100 100 99 97 96 94 93 92 93 94 95 97 98 99 100 98 96 95 94 94 94 95 95 94 93 92 91 91 91 91 92 94 95 95 96 96 96 96 95 95 94 94 92 90 88 87 87 86 86
99 100 100 100 99 99 99 99 99 99 99 98 98 97 97 96 96 96 96 96 95 95 94 94 94 94 93 94 95 96 96 97 97 96 96 95 95 94 94 93 92 91 90 89 90 90 91 92 94 95 95 94 93 92 91 91 91 91 92 91 90 89 88 87 87 88 89 91 92 92 92 92 93 92 92 91 91 90 89 87 86 86 85 85 84
97 97 96 96 96 96 96 95 95 96 96 95 95 94 93 93 93 92 92 92 91 91 91 91 90 90 90 90 91 91 92 92 92 92 91 90 89 89 88 88 89 88 87 86 85 85 87 89 90 91 91 90 88 87 87 88 89 88 87 87 87 86 85 84 84 85 86 88 88 89 88 88 89 88 88 87 87 87 86 85 85 84 84 83 83
94 93 93 93 93 93 92 92 92 92 92 92 92 91 90 89 89 88 87 87 87 87 87 87 87 87 87 87 88 88 88 88 88 87 87 85 85 84 84 83 84 84 84 83 82 82 85 86 86 85 85 84 83 83 84 85 85 84 83 83 82 82 81 81 82 83 84 85 85 85 84 84 84 84 84 84 84 84 83 82 82 82 81 81 81
91 91 90 90 90 90 89 89 89 89 88 88 87 87 86 86 85 84 84 84 83 83 83 83 84 84 84 84 84 85 85 85 84 83 82 82 81 80 79 79 79 79 80 80 79 80 82 82 81 79 78 79 80 81 82 82 81 80 80 79 79 78 78 79 79 80 81 81 82 81 81 80 80 80 80 80 81 80 80 79 79 79 79 79 78
88 88 88 88 87 86 86 86 85 85 84 84 84 84 84 83 81 80 80 80 80 79 79 79 80 80 80 80 80 80 80 81 80 79 78 77 76 76 75 75 75 75 76 76 76 77 78 77 75 74 75 77 79 80 79 78 78 77 76 76 76 75 75 76 76 77 77 78 78 78 77 77 77 77 77 77 77 77 76 75 75 76 76 76 76
86 86 86 85 84 83 83 83 82 82 81 81 80 80 81 80 79 76 75 75 75 75 75 75 76 76 76 76 76 76 75 75 75 75 73 72 71 72 72 72 72 71 72 72 72 72 73 72 71 72 73 75 76 76 75 74 74 73 73 73 73 73 73 73 73 73 73 73 74 74 74 73 74 74 74 74 74 73 72 72 73 73 73 73 72
83 83 83 82 81 81 80 80 79 79 78 78 77 77 77 77 76 74 70 69 70 71 72 72 72 72 72 72 72 72 71 71 70 70 69 68 68 68 69 69 69 69 69 69 68 69 70 70 69 69 70 71 72 72 71 71 70 69 70 70 70 70 70 70 70 69 69 70 70 71 71 71 71 71 71 70 70 69 68 69 70 70 70 70 69
80 80 80 79 79 78 77 77 76 75 75 74 74 74 73 74 74 72 69 67 66 67 69 70 69 69 68 68 68 68 68 67 66 66 66 65 65 65 64 65 65 66 66 66 65 66 66 66 65 65 66 67 68 68 68 67 66 66 66 67 66 66 67 67 67 66 66 66 67 67 68 68 68 68 67 66 66 66 65 66 67 67 67 66 66
77 77 76 76 76 75 74 74 73 72 72 71 71 71 71 70 70 70 68 66 63 63 65 66 67 66 65 64 65 65 65 64 63 62 62 62 62 62 61 61 61 62 63 63 63 62 62 61 61 61 62 63 63 64 64 64 63 63 63 64 63 63 63 64 64 63 63 63 64 65 65 65 64 64 63 63 63 63 63 63 63 63 63 63 63
74 73 73 72 72 71 70 70 69 69 69 68 67 67 67 66 66 65 65 63 61 60 60 62 63 63 61 61 61 61 61 60 60 59 59 59 59 58 58 58 58 58 59 59 59 58 58 57 57 57 57 58 59 60 61 61 60 60 60 60 60 60 60 61 61 60 60 60 61 62 62 61 61 60 60 59 60 60 60 60 60 60 60 60 60
70 70 69 68 68 67 67 66 65 65 65 64 64 63 63 63 62 61 61 60 59 58 57 58 59 59 58 58 58 57 57 57 57 56 56 56 55 55 55 55 55 55 55 55 55 55 55 55 54 54 54 55 56 57 58 57 56 56 57 57 58 58 58 58 58 58 58 58 58 58 58 58 57 57 56 56 57 57 56 56 57 57 56 56 56
67 66 66 65 65 64 63 62 62 61 61 61 61 61 60 60 59 59 58 57 56 55 55 55 55 55 55 55 55 54 54 54 53 53 53 53 53 52 52 52 52 52 51 51 52 52 53 53 52 52 52 52 53 54 54 53 53 53 54 55 55 55 56 56 56 56 56 55 55 55 55 55 54 54 53 53 53 53 53 53 53 53 53 53 53
64 64 64 63 63 62 61 60 59 59 59 59 58 58 58 57 57 56 55 54 54 53 52 52 52 52 52 52 52 51 51 51 50 50 50 50 50 49 49 49 49 49 48 48 48 49 49 49 49 49 49 49 49 50 51 51 50 51 51 52 53 53 53 53 53 53 52 52 52 51 51 52 51 51 51 50 50 50 50 50 50 50 50 50 50
62 61 61 60 60 59 59 58 58 57 56 56 55 55 55 54 54 53 52 51 51 50 49 49 48 48 48 48 48 47 47 47 47 46 46 47 47 47 46 46 46 46 45 45 45 45 46 46 46 46 46 46 47 47 48 48 47 47 48 49 50 50 50 50 50 49 49 49 49 48 48 49 49 48 48 47 47 48 48 48 48 48 48 48 48
59 58 58 58 57 57 57 56 55 55 54 53 52 52 52 51 51 50 50 49 48 47 46 46 45 45 45 45 44 44 43 43 43 43 43 43 43 43 43 43 42 42 42 42 42 42 43 43 43 44 44 43 44 44 44 44 44 44 45 46 46 46 47 47 46 46 46 46 46 46 45 46 46 45 45 45 45 45 45 45 45 45 45 45 45
57 57 57 56 56 55 55 54 53 52 52 51 50 49 49 48 48 47 47 46 46 45 44 43 43 42 42 42 41 41 40 40 40 40 40 40 40 40 40 40 39 39 39 39 39 39 40 40 40 40 41 40 41 41 41 41 41 41 42 43 44 44 44 43 43 43 43 43 43 43 43 43 43 43 43 43 43 43 43 43 43 43 43 43 43
56 56 55 55 54 53 52 52 51 51 50 49 48 47 47 46 45 45 44 44 43 43 42 41 40 40 39 39 39 38 38 38 37 37 37 37 37 37 37 36 37 36 36 36 36 37 37 38 38 38 38 38 38 38 38 38 38 39 39 40 40 40 40 40 40 40 40 39 40 40 40 40 40 40 40 40 40 41 41 40 40 40 40 40 40
55 54 54 53 52 52 51 51 50 49 49 47 47 46 45 44 43 43 42 42 41 41 40 39 38 38 37 37 37 36 36 36 35 35 35 35 35 34 34 33 33 34 34 33 34 34 35 35 35 35 34 34 34 34 35 35 35 36 37 37 37 37 37 36 36 36 36 36 36 37 37 37 37 37 38 38 38 38 38 37 37 37 37 37 37
54 53 52 51 51 51 50 50 49 48 47 46 45 44 43 42 42 41 41 40 39 39 38 37 37 36 35 35 35 34 34 33 33 32 32 32 33 32 32 31 31 31 31 31 31 31 31 32 32 31 31 31 31 31 31 32 32 33 33 34 34 34 33 33 33 33 33 33 33 34 34 34 34 35 35 35 35 35 35 35 34 34 34 34 34
52 51 50 50 50 49 48 48 47 46 45 44 44 43 42 41 41 40 39 38 37 37 36 35 34 34 33 32 32 32 32 31 31 30 30 30 31 30 30 29 28 28 28 28 28 28 28 28 28 28 28 27 27 28 28 29 29 30 30 31 31 30 30 29 29 30 30 31 31 31 31 31 31 32 32 32 32 32 32 32 31 31 31 31 31
50 49 49 48 48 47 46 45 45 44 43 43 42 42 41 40 39 38 37 36 35 35 34 33 32 31 31 30 30 29 29 29 28 28 28 28 29 29 28 28 27 26 26 26 26 25 25 26 26 26 25 25 25 26 26 26 27 27 27 28 28 27 27 26 26 27 28 28 29 28 28 28 28 29 29 29 29 29 29 29 28 28 28 28 28
48 48 47 47 46 45 45 44 43 42 42 41 41 40 39 39 38 37 36 35 34 33 32 32 31 30 29 28 28 27 26 26 26 26 26 26 26 26 26 26 25 24 24 24 23 23 23 23 23 23 23 24 24 24 24 24 24 24 24 25 25 25 24 24 24 24 25 26 26 25 25 25 25 26 26 26 26 26 26 26 25 25 25 25 25
47 46 46 45 45 44 43 42 41 41 40 39 39 38 38 37 36 35 34 33 32 31 31 30 30 29 28 27 26 25 25 24 24 23 23 23 23 24 24 23 23 23 22 22 22 21 21 21 21 21 22 22 22 21 21 21 21 21 21 22 22 22 22 22 22 22 23 23 23 22 22 22 22 23 23 23 24 24 23 23 22 22 22 22 22
45 45 44 43 42 42 41 40 40 39 38 38 37 36 36 35 34 33 32 31 30 30 29 29 28 28 27 26 26 25 24 23 22 22 21 21 21 21 21 21 21 21 21 20 20 20 19 19 19 20 20 20 19 19 19 18 18 18 19 20 20 19 19 19 19 19 20 20 20 19 19 19 20 20 21 21 21 21 20 20 20 20 20 20 21
44 43 43 42 41 40 40 39 38 38 37 36 36 35 34 34 33 32 31 30 29 28 28 28 27 27 26 25 25 24 23 22 22 21 20 20 20 19 19 19 19 19 19 18 19 18 18 18 18 18 18 18 17 17 16 16 16 16 17 17 17 17 16 16 17 17 17 17 17 17 17 17 17 18 18 19 18 18 18 18 18 18 19 19 19
43 42 42 41 40 40 39 38 37 36 36 35 34 34 33 32 32 31 30 29 28 27 27 27 26 26 25 24 24 23 22 21 21 20 20 19 19 18 18 18 17 17 17 17 17 17 16 16 16 16 17 17 16 15 15 15 15 15 15 15 15 15 15 15 15 15 15 15 15 15 15 15 15 16 16 16 16 16 16 16 16 16 17 17 17
Wind_Direction
274 274 274 274 274 274 274 274 274 274 274 274 274 274 274 274 273 273 273 273 273 273 273 273 273 274 274 274 274 274 274 274 273 273 273 273 273 273 273 273 273 273 273 273 273 274 274 274 275 275 275 275 275 275 275 275 275 274 274 274 274 274 274 274 274 273 273 272 272 272 272 272 272 272 272 272 272 272 272 272 271 271 271 270 270
273 274 274 274 274 274 274 274 274 275 275 275 275 275 275 274 274 274 274 274 274 274 274 274 274 274 274 274 274 274 273 273 273 273 273 273 272 272 272 272 272 271 271 271 272 272 272 272 273 273 273 274 274 274 275 275 275 275 275 275 275 275 275 275 275 275 274 273 273 273 273 273 272 272 272 272 272 272 272 272 272 272 271 271 270
273 273 273 274 274 274 274 275 275 275 275 275 275 275 275 275 275 275 275 275 275 275 274 274 274 274 274 274 274 273 273 273 273 273 273 273 273 272 272 272 271 271 271 271 271 271 271 271 271 272 272 272 273 273 274 274 275 275 275 275 276 276 276 276 275 275 274 274 273 273 273 273 273 273 273 273 273 272 272 272 272 272 271 271 271
272 272 273 273 273 274 274 274 275 275 275 275 275 275 275 275 275 275 275 275 275 275 275 275 275 275 275 274 274 274 274 274 274 273 273 273 273 273 273 272 272 272 272 272 272 272 272 272 272 272 272 272 272 273 273 273 274 274 275 275 275 275 275 275 275 275 275 274 273 273 273 273 273 273 272 272 272 272 272 272 272 272 271 271 271
272 272 272 273 273 273 273 274 274 275 275 275 275 276 276 276 276 276 276 276 276 276 276 276 276 275 275 275 275 275 275 275 275 274 274 274 274 274 274 274 274 273 273 273 273 273 273 272 272 272 272 272 272 272 273 273 273 273 274 274 274 274 275 275 275 275 275 274 274 273 273 273 272 272 272 272 271 271 271 271 270 270 270 270 270
273 273 273 273 273 273 273 273 274 274 274 274 275 275 276 276 276 277 277 277 277 277 277 276 276 276 276 276 276 276 276 276 276 275 275 275 275 275 275 275 275 275 274 274 274 273 273 273 273 273 273 273 273 272 272 272 272 273 273 273 273 273 274 274 274 275 275 275 274 274 273 273 273 272 272 272 271 271 270 270 270 269 269 269 269
273 273 273 273 273 273 273 273 273 273 273 274 274 274 274 275 275 276 276 276 276 276 276 276 276 276 276 276 276 277 277 277 277 277 277 276 276 276 276 276 275 275 275 275 275 275 275 274 274 274 274 273 273 273 272 272 272 272 272 272 272 272 272 272 273 273 273 273 273 273 272 272 272 272 272 272 271 271 270 270 269 269 269 268 268
274 274 274 274 274 274 274 274 274 274 274 274 274 274 274 274 274 275 275 275 275 275 276 276 276 276 277 277 277 277 277 277 277 277 277 277 276 276 276 276 276 276 276 276 276 276 276 276 276 275 275 274 274 273 272 272 272 271 271 271 271 271 271 271 271 271 271 271 271 271 271 270 270 270 270 270 270 270 270 269 269 268 268 268 268
275 275 275 275 275 275 275 275 275 275 275 275 275 275 275 275 275 275 275 275 275 276 276 276 276 276 277 277 277 277 277 277 276 276 276 276 276 276 276 276 276 276 276 276 277 277 277 276 276 276 275 274 274 273 273 273 272 272 272 271 271 271 270 270 270 270 270 270 270 270 269 269 269 269 269 269 269 269 269 269 268 268 268 268 268
276 276 276 276 276 276 276 276 276 276 276 276 276 276 276 276 276 276 276 277 277 277 277 277 277 277 277 277 277 276 276 276 276 276 276 276 276 276 276 276 276 276 277 277 277 277 276 276 275 275 275 274 274 274 274 273 273 273 272 272 271 271 271 270 270 270 270 270 269 269 269 269 268 268 268 268 268 268 268 268 268 268 268 268 268
277 277 277 277 277 277 277 277 277 277 277 277 277 277 277 277 277 277 277 277 277 278 278 278 277 277 277 277 277 277 277 277 277 277 277 277 277 277 277 277 277 277 277 277 277 276 276 276 275 275 275 275 275 275 274 274 273 273 272 272 272 271 271 271 271 271 270 270 270 270 269 269 269 268 268 268 267 267 267 267 267 267 267 267 267
277 277 277 277 277 277 277 277 277 277 277 277 277 278 278 278 278 278 278 278 278 278 278 278 278 278 278 279 279 279 279 279 279 279 279 278 278 277 277 277 277 277 277 277 277 276 276 276 276 276 276 276 276 275 275 274 274 273 273 272 272 272 271 271 271 271 271 271 270 270 270 270 269 269 269 268 268 267 267 267 267 267 267 266 266
277 277 277 277 278 278 278 278 278 278 278 279 279 279 279 279 279 279 279 279 279 279 279 279 279 280 280 280 280 280 280 279 279 279 279 279 279 278 278 278 278 278 277 277 277 277 277 277 276 276 276 276 276 275 275 275 274 274 273 273 272 272 272 271 271 271 271 271 271 271 270 270 269 269 269 268 268 268 267 267 267 267 267 266 266
278 278 278 278 279 279 279 279 279 279 280 280 280 280 280 280 280 280 280 280 280 280 280 280 280 280 280 280 280 279 279 279 279 279 279 279 279 279 279 278 278 278 278 277 277 277 277 277 277 276 276 276 276 276 275 275 274 274 273 273 273 272 272 272 272 272 272 272 271 271 271 271 270 270 269 269 269 268 268 267 267 267 267 267 266
279 279 279 279 279 279 279 280 280 280 280 280 280 280 280 281 281 281 281 281 281 280 280 280 280 280 280 280 280 279 279 279 279 279 279 278 278 278 279 279 278 278 278 278 278 277 277 277 277 276 276 276 275 275 275 274 274 273 273 273 273 273 273 273 273 273 272 272 272 271 271 271 270 270 270 269 269 269 268 268 267 267 267 267 267
279 279 279 279 279 279 279 280 280 280 280 281 281 281 281 281 281 280 280 280 280 280 280 279 279 279 279 279 279 279 278 278 278 278 278 278 278 278 278 278 278 277 277 277 277 277 277 276 276 276 275 275 275 275 274 274 273 272 272 272 273 273 274 274 274 273 273 272 272 271 271 270 270 270 269 269 268 268 268 268 268 268 268 267 267
279 279 279 280 280 280 280 281 281 281 281 280 280 280 280 280 280 279 279 279 279 279 279 279 279 278 278 278 278 278 278 278 278 277 277 277 277 277 277 277 277 277 277 277 277 277 276 276 275 275 275 275 274 274 273 273 273 273 273 273 274 274 274 274 274 273 273 273 272 272 271 270 270 269 269 269 269 269 269 269 269 268 267 267 266
280 280 281 281 281 281 281 281 280 280 280 280 280 280 280 280 280 280 280 280 280 279 279 279 279 279 279 279 278 278 278 278 278 278 278 278 277 277 277 277 277 277 277 277 277 276 276 275 275 274 274 273 273 273 273 273 273 274 274 275 275 275 274 273 273 273 272 272 271 271 271 270 270 270 270 270 269 269 269 269 268 268 268 267 267
281 281 281 281 281 281 281 281 281 281 281 281 281 281 281 281 281 281 281 281 280 280 280 280 280 280 280 279 279 278 278 278 278 277 277 277 277 277 277 277 277 277 276 276 276 275 275 274 274 273 273 273 272 273 273 273 273 274 275 275 274 273 273 273 272 272 271 271 271 271 271 271 271 271 270 270 270 270 269 269 268 268 268 268 267
282 282 283 283 283 283 283 283 282 282 282 282 282 282 282 282 281 281 281 281 281 281 281 280 280 280 280 279 279 278 278 278 277 277 277 277 277 277 277 277 276 276 276 276 276 276 275 275 274 274 273 273 273 273 273 273 274 274 274 273 273 273 273 273 272 272 271 271 271 271 271 271 271 271 271 270 270 270 270 269 269 268 268 268 267
284 284 284 284 284 284 284 283 283 283 283 282 282 282 282 282 282 282 281 281 281 281 281 281 281 280 280 280 280 279 279 279 279 278 278 278 278 277 277 277 277 277 277 277 276 276 276 276 275 275 274 274 274 274 274 274 274 274 273 273 273 273 273 272 272 271 271 271 271 271 271 271 271 271 270 270 270 270 270 269 269 269 269 268 268
285 285 285 285 285 285 284 284 284 284 283 283 283 283 283 283 282 282 282 282 282 282 282 282 282 281 281 281 281 280 280 280 279 279 279 279 278 278 278 278 278 277 277 277 277 276 276 276 276 275 275 274 274 274 274 274 274 273 273 273 273 272 272 271 271 271 271 272 272 272 272 271 271 270 270 270 270 270 270 269 269 269 269 268 268
285 285 285 285 285 285 285 285 285 285 285 285 284 284 284 284 284 284 283 283 283 283 282 282 282 281 281 281 281 281 280 280 280 279 279 279 279 279 278 278 278 277 277 277 276 276 276 275 275 275 275 274 274 274 274 274 274 273 273 273 272 272 271 271 271 272 272 272 272 272 271 271 271 271 271 271 270 270 270 270 269 269 269 269 268
287 286 286 286 286 286 287 286 286 286 286 286 286 286 285 285 285 284 284 284 283 283 282 282 281 281 281 281 280 280 280 280 279 279 278 278 278 279 279 278 278 277 277 276 276 275 275 275 274 274 274 274 274 274 274 274 274 273 273 272 271 271 271 271 271 272 272 272 271 271 271 271 271 271 271 271 271 271 270 270 270 270 270 269 268
288 288 288 288 288 288 288 288 287 287 287 287 286 286 286 286 285 285 285 284 284 283 283 282 281 281 281 280 280 279 279 279 278 278 278 278 278 278 278 278 278 278 277 276 275 274 274 274 273 274 274 274 274 274 273 273 273 273 272 272 272 271 271 271 271 271 271 271 270 270 270 270 271 271 271 271 271 271 271 271 271 270 270 269 268
290 289 289 289 289 289 289 288 288 288 288 287 287 287 286 286 286 286 285 285 285 284 283 283 282 282 281 280 280 279 279 278 278 278 278 278 278 278 278 279 278 277 276 275 274 274 274 273 273 273 273 273 273 274 273 273 272 272 272 272 272 272 271 271 271 270 270 270 270 270 270 270 270 271 271 271 272 272 272 272 271 270 269 269 268
290 290 290 290 290 289 289 289 289 289 289 288 288 288 287 287 286 286 285 285 285 284 284 284 283 283 282 281 280 279 279 279 278 278 278 278 278 278 278 278 277 277 276 276 275 274 274 273 272 272 272 273 274 274 273 273 272 272 271 272 272 272 271 271 270 270 269 269 269 269 269 270 270 270 271 271 271 271 271 271 270 270 269 269 268
291 291 291 290 290 290 290 290 290 289 289 289 288 288 288 287 287 286 286 286 286 286 285 285 284 283 283 282 281 280 280 280 279 279 279 279 279 278 278 277 277 277 277 276 275 274 273 272 272 273 274 275 275 274 272 272 271 271 271 271 271 271 271 270 270 269 269 269 269 269 269 269 270 270 270 270 270 270 270 270 270 270 269 269 268
292 292 292 292 292 291 291 291 290 290 290 290 289 289 289 288 288 288 288 287 287 286 286 285 284 284 283 282 281 281 281 281 280 280 280 280 279 279 278 278 277 276 275 275 274 273 273 273 274 275 275 274 273 272 271 271 271 271 271 271 271 271 270 270 270 269 269 269 269 269 269 269 270 270 270 270 269 269 270 270 270 270 269 269 268
294 294 293 293 293 293 292 292 292 292 292 291 291 291 290 289 289 288 288 288 287 287 286 285 284 283 283 282 282 281 281 281 281 281 281 280 280 280 279 277 276 275 275 274 274 273 274 274 275 274 273 272 271 271 271 271 272 272 272 271 271 270 270 269 269 269 269 269 270 270 270 270 269 269 269 269 269 269 269 269 269 269 269 269 268
295 295 295 295 295 294 294 294 294 293 293 292 292 291 291 290 289 288 288 288 287 287 286 285 284 284 283 283 283 282 282 282 282 282 282 281 281 280 279 278 277 276 275 275 274 274 274 273 272 272 271 271 271 272 272 272 272 272 272 271 271 270 270 269 269 269 269 270 270 270 270 269 269 269 268 268 269 269 269 269 269 268 268 268 268
296 296 296 296 296 296 296 295 295 294 294 293 293 292 292 291 291 290 289 289 289 289 288 287 286 285 285 285 284 284 283 283 282 282 282 281 280 279 279 279 278 277 276 275 274 274 273 273 272 272 272 272 272 273 273 272 272 272 272 271 271 271 270 270 270 269 269 269 269 269 269 269 268 268 268 269 269 269 268 268 268 268 268 268 268
298 298 298 297 297 297 297 296 296 296 295 295 295 294 294 294 294 293 293 292 291 290 289 288 287 287 287 286 286 285 285 284 283 283 283 282 280 280 279 279 278 278 277 276 275 274 274 274 274 273 273 273 273 273 273 273 273 272 272 271 271 271 270 270 270 269 269 269 269 269 268 268 268 269 269 269 269 268 268 267 267 267 267 267 267
299 299 299 298 298 298 298 298 298 297 297 297 297 296 296 295 295 295 294 294 292 291 290 289 289 288 288 287 287 286 286 285 284 284 283 282 281 281 280 279 278 278 277 277 276 276 276 275 275 274 274 274 274 274 274 273 273 272 271 271 271 271 271 270 270 269 269 269 268 268 268 268 268 269 269 269 268 268 267 267 267 267 267 267 267
300 299 299 299 299 299 299 299 299 299 298 297 297 296 296 296 295 295 295 295 294 292 291 290 290 289 289 288 287 287 286 286 285 284 283 282 281 281 280 279 278 277 277 277 277 276 276 275 275 274 274 273 273 273 272 272 272 272 272 272 271 271 270 270 270 269 269 268 268 268 268 268 268 269 269 268 268 268 267 267 267 267 267 266 266
300 300 300 300 300 300 300 300 299 299 299 298 298 298 298 298 297 297 297 296 295 294 293 292 291 291 290 289 288 288 287 287 286 285 284 283 282 281 280 279 278 278 277 277 277 276 276 275 274 273 272 271 271 271 272 272 272 272 272 271 270 270 270 269 269 269 268 268 268 268 269 269 269 269 269 268 268 268 268 267 267 267 267 267 266
302 302 302 302 302 302 302 302 302 302 302 302 301 301 301 300 300 299 299 298 297 296 295 294 293 292 292 291 290 290 289 288 288 287 286 285 284 282 281 281 280 279 278 278 277 277 276 275 275 274 273 273 272 272 272 272 272 271 271 270 270 270 269 269 269 269 269 269 269 270 270 270 269 269 269 268 268 268 268 268 267 267 267 266 266
305 305 305 305 305 305 305 305 305 305 305 304 304 303 302 302 301 301 300 299 298 297 296 295 294 293 293 292 291 291 290 290 289 288 287 286 286 285 284 283 282 281 280 279 278 277 277 276 276 275 274 273 272 272 271 271 271 271 270 270 270 270 270 270 270 270 270 270 270 270 270 269 269 269 269 268 268 268 268 267 267 267 266 265 265
307 307 307 307 308 308 308 308 307 307 306 305 305 304 304 303 303 302 302 301 300 299 298 297 296 295 294 293 293 292 292 291 290 289 288 287 287 286 285 285 284 283 282 281 279 278 278 277 276 275 275 274 273 273 272 272 272 272 271 271 271 271 270 270 271 271 270 270 270 269 269 269 269 269 269 268 268 267 267 266 266 266 265 265 264
309 309 310 310 310 310 310 309 309 308 308 307 307 306 306 305 305 304 304 303 302 301 301 299 298 297 296 296 295 294 293 293 292 290 289 288 288 287 287 286 285 284 283 282 281 280 279 278 278 277 277 276 275 274 274 274 273 272 271 271 270 270 270 270 270 270 270 270 269 269 269 269 269 269 268 268 267 266 266 266 266 265 265 265 264
312 312 312 312 312 312 311 311 311 311 310 310 310 309 308 308 307 307 306 306 305 305 304 303 302 300 299 298 297 297 296 295 294 293 291 290 290 289 289 288 287 286 285 284 283 281 280 280 279 278 277 276 276 275 274 274 273 272 271 271 270 270 270 270 270 270 270 269 269 269 269 268 268 268 268 267 267 267 266 266 266 265 265 265 264
315 314 314 314 313 313 313 314 314 313 313 312 312 311 311 311 310 310 309 309 308 307 307 306 305 303 302 301 300 299 299 298 296 295 294 293 292 291 291 290 289 289 287 286 284 283 282 282 281 280 279 278 278 277 276 275 275 274 273 272 272 271 271 271 271 271 270 270 270 270 269 269 269 268 268 268 267 267 267 267 266 266 265 264 264
316 316 316 316 316 316 316 316 316 315 315 314 314 314 314 313 313 313 312 312 311 310 309 308 307 306 305 304 303 302 301 300 299 298 296 295 294 293 293 292 291 290 289 288 286 285 284 284 283 283 282 281 280 279 278 277 276 275 274 274 273 273 273 273 273 273 272 271 271 270 270 269 269 269 268 268 268 267 267 266 266 265 264 264 263
318 318 318 318 319 319 318 318 317 317 317 317 317 316 316 316 316 315 315 314 313 312 311 310 309 308 308 307 306 305 304 303 302 300 298 297 296 295 295 294 293 292 291 289 288 287 286 285 285 284 284 283 281 280 279 277 276 275 275 275 275 275 275 275 274 274 273 272 271 270 270 269 269 269 269 268 267 267 267 266 266 265 264 263 263
319 320 320 320 320 320 319 319 319 319 319 319 319 319 319 319 318 318 317 316 315 314 313 312 312 311 310 310 309 308 307 305 304 303 301 300 299 298 297 296 295 293 292 290 289 288 287 286 286 285 285 283 281 280 278 277 276 276 276 276 276 276 276 275 274 273 272 271 270 270 270 269 269 269 268 267 267 266 266 266 265 265 264 263 263
321 321 321 321 321 321 321 321 321 321 321 321 321 321 321 320 320 320 319 318 317 316 315 314 314 314 313 312 311 310 309 308 307 306 305 303 302 301 300 299 298 296 295 293 292 291 289 288 288 287 286 285 283 282 280 280 279 279 278 278 278 277 277 276 274 272 271 271 270 270 270 269 269 268 268 267 267 266 266 266 266 265 264 263 263
322 323 323 323 323 323 323 324 324 323 323 322 322 322 322 322 322 322 321 320 319 318 317 317 317 316 315 315 314 313 312 312 311 310 309 308 306 305 304 303 302 300 299 297 295 294 293 291 290 290 289 287 287 286 285 285 284 283 281 281 280 279 278 276 274 273 272 271 271 271 270 269 269 268 268 267 267 267 267 266 265 264 264 263 262
324 325 325 325 325 325 325 325 325 325 324 324 324 324 324 324 324 323 323 323 322 321 321 320 320 319 319 318 317 316 316 315 314 314 313 312 312 310 310 309 308 306 304 302 300 298 296 294 293 291 291 291 290 290 289 289 287 285 283 281 280 280 279 278 275 274 273 272 272 271 270 268 268 267 266 266 266 266 265 264 263 262 261 260 259
326 327 327 327 327 327 327 326 326 326 327 326 326 326 326 325 326 326 325 325 325 325 324 324 323 323 323 322 321 320 319 319 318 318 317 316 316 316 315 315 314 312 310 308 306 304 301 299 296 295 294 294 294 294 293 291 288 286 283 282 282 281 280 278 275 274 273 272 271 270 268 267 266 265 265 264 264 264 264 262 261 259 258 256 255
328 328 328 329 329 329 328 329 329 329 329 328 328 327 327 328 328 328 328 328 328 329 328 327 327 327 326 326 325 325 324 324 323 322 321 320 320 319 319 319 318 317 315 313 311 309 307 305 302 299 299 299 299 298 295 292 290 287 285 285 284 283 281 279 277 275 274 273 272 271 269 268 266 265 264 264 263 262 261 259 257 256 254 252 251
330 330 330 331 331 331 331 331 331 331 331 330 329 330 330 331 331 331 331 331 332 332 332 331 331 330 330 329 329 329 329 328 327 327 326 325 324 324 323 323 322 321 320 318 317 315 314 312 309 306 305 304 303 301 297 294 292 290 288 287 287 286 284 282 280 278 277 275 274 273 272 270 267 265 264 263 262 261 259 257 255 253 252 250 249
Height
10227 10225 10223 10220 10218 10215 10213 10210 10208 10205 10203 10201 10198 10196 10194 10192 10190 10188 10186 10183 10182 10180 10177 10175 10172 10170 10168 10166 10164 10163 10161 10159 10158 10156 10155 10153 10152 10151 10149 10148 10146 10144 10142 10139 10135 10132 10129 10127 10123 10120 10118 10117 10117 10116 10115 10114 10112 10112 10112 10111 10110 10108 10106 10105 10107 10119 10134 10133 10128 10131 10127 10119 10121 10122 10117 10117 10118 10116 10114 10117 10118 10119 10119 10121 10122
10211 10208 10205 10202 10200 10197 10194 10192 10190 10187 10185 10181 10178 10175 10173 10171 10169 10168 10166 10164 10162 10161 10158 10156 10154 10151 10149 10146 10144 10143 10141 10139 10137 10135 10133 10132 10131 10130 10129 10128 10127 10126 10124 10122 10119 10116 10114 10112 10109 10105 10102 10099 10098 10096 10094 10093 10091 10090 10090 10089 10089 10088 10085 10083 10085 10092 10105 10113 10109 10107 10107 10100 10099 10104 10100 10095 10099 10099 10094 10096 10098 10097 10097 10099 10100
10194 10191 10189 10186 10183 10179 10176 10174 10171 10169 10166 10163 10159 10156 10153 10151 10148 10146 10145 10143 10141 10140 10138 10136 10134 10131 10129 10127 10124 10122 10120 10118 10116 10114 10112 10111 10109 10107 10106 10105 10105 10104 10103 10102 10101 10099 10096 10095 10092 10089 10086 10083 10082 10079 10076 10074 10072 10069 10070 10069 10067 10067 10065 10060 10062 10067 10077 10088 10091 10087 10085 10081 10078 10082 10081 10075 10077 10080 10077 10076 10077 10077 10076 10078 10079
10179 10176 10173 10170 10167 10164 10161 10157 10154 10151 10147 10144 10140 10137 10134 10132 10129 10127 10125 10123 10121 10119 10117 10114 10112 10109 10107 10105 10102 10100 10099 10097 10095 10093 10091 10089 10088 10086 10084 10083 10083 10082 10082 10081 10080 10079 10077 10076 10074 10071 10069 10068 10066 10063 10059 10057 10055 10052 10050 10050 10047 10045 10045 10041 10039 10043 10049 10060 10070 10069 10065 10063 10059 10059 10060 10057 10056 10058 10058 10057 10057 10056 10056 10056 10058
10163 10160 10157 10154 10151 10148 10145 10142 10139 10134 10130 10125 10121 10118 10116 10113 10111 10108 10106 10103 10100 10098 10095 10093 10091 10088 10086 10083 10080 10078 10077 10075 10073 10071 10069 10067 10066 10065 10063 10062 10062 10061 10061 10060 10059 10058 10057 10056 10054 10051 10049 10049 10049 10046 10042 10039 10037 10035 10032 10032 10029 10025 10024 10022 10019 10019 10022 10031 10044 10048 10044 10042 10040 10037 10038 10036 10035 10036 10037 10036 10037 10036 10036 10037 10037
10146 10143 10141 10138 10134 10131 10129 10126 10122 10118 10114 10111 10107 10103 10099 10096 10093 10090 10087 10084 10080 10077 10074 10072 10070 10068 10065 10062 10060 10058 10056 10053 10052 10049 10047 10045 10043 10042 10042 10041 10040 10039 10038 10037 10036 10035 10035 10034 10033 10031 10028 10028 10028 10026 10023 10020 10018 10016 10015 10013 10011 10007 10004 10003 10001 9999 10000 10006 10015 10022 10023 10020 10016 10014 10016 10014 10012 10013 10015 10014 10014 10015 10016 10017 10017
10129 10126 10123 10120 10117 10114 10112 10108 10105 10102 10099 10096 10093 10089 10085 10081 10077 10073 10070 10067 10063 10060 10056 10053 10050 10048 10045 10043 10041 10038 10036 10033 10030 10028 10026 10023 10021 10019 10019 10019 10018 10017 10016 10014 10013 10011 10011 10010 10010 10009 10006 10005 10005 10004 10001 9999 9997 9996 9995 9994 9992 9990 9987 9987 9985 9982 9981 9985 9990 9995 10000 10000 9996 9993 9993 9992 9988 9988 9991 9990 9991 9994 9994 9994 9997
10112 10109 10105 10102 10100 10097 10093 10090 10087 10084 10082 10079 10076 10073 10069 10066 10062 10058 10054 10050 10047 10044 10040 10037 10033 10029 10027 10026 10023 10020 10017 10014 10011 10008 10005 10002 9999 9998 9998 9997 9996 9995 9994 9993 9992 9990 9988 9988 9987 9985 9983 9980 9979 9979 9977 9976 9975 9975 9975 9974 9971 9970 9969 9968 9967 9964 9963 9965 9968 9971 9974 9977 9978 9975 9973 9970 9967 9966 9966 9965 9968 9975 9975 9971 9974
10094 10091 10088 10085 10083 10079 10075 10072 10069 10067 10064 10060 10057 10054 10050 10047 10044 10040 10036 10032 10029 10026 10023 10020 10016 10012 10009 10006 10004 10001 9999 9996 9992 9988 9984 9981 9979 9978 9978 9977 9976 9976 9975 9974 9973 9970 9968 9967 9964 9962 9959 9957 9955 9954 9954 9954 9953 9952 9953 9951 9947 9946 9948 9947 9945 9944 9944 9944 9947 9949 9950 9952 9956 9956 9953 9950 9947 9944 9944 9941 9942 9951 9955 9953 9955
10077 10073 10071 10068 10064 10061 10057 10054 10051 10048 10045 10042 10038 10035 10031 10028 10024 10021 10017 10013 10010 10007 10004 10001 9997 9994 9991 9987 9984 9981 9978 9976 9972 9968 9964 9960 9958 9957 9957 9957 9957 9957 9957 9956 9953 9950 9947 9944 9942 9939 9936 9935 9933 9932 9932 9932 9931 9930 9929 9928 9924 9923 9924 9924 9923 9923 9923 9923 9925 9927 9927 9928 9932 9933 9930 9930 9926 9921 9921 9921 9920 9927 9934 9934 9937
10060 10056 10053 10050 10046 10043 10039 10036 10032 10029 10025 10022 10019 10015 10013 10010 10006 10003 9999 9995 9991 9988 9984 9980 9976 9973 9971 9968 9965 9961 9957 9954 9950 9947 9945 9941 9938 9937 9936 9937 9937 9937 9937 9936 9932 9928 9924 9921 9919 9917 9915 9913 9911 9909 9909 9908 9907 9906 9905 9905 9903 9902 9902 9902 9901 9901 9900 9901 9904 9906 9904 9904 9908 9909 9907 9907 9904 9898 9899 9902 9902 9906 9911 9912 9916
10044 10040 10036 10033 10029 10025 10022 10018 10014 10010 10006 10003 9999 9996 9994 9991 9987 9985 9981 9977 9973 9969 9964 9960 9957 9953 9951 9949 9946 9942 9937 9933 9927 9924 9921 9918 9915 9914 9914 9917 9919 9918 9916 9912 9909 9906 9903 9901 9898 9896 9894 9891 9888 9887 9885 9884 9883 9882 9881 9881 9880 9880 9881 9880 9880 9880 9879 9880 9881 9883 9883 9881 9882 9884 9884 9882 9878 9876 9878 9881 9883 9885 9888 9890 9893
10028 10024 10020 10015 10012 10008 10005 10001 9997 9992 9988 9985 9981 9977 9974 9971 9967 9964 9961 9957 9953 9950 9945 9941 9938 9934 9931 9929 9927 9923 9918 9912 9907 9902 9898 9894 9891 9888 9890 9895 9899 9898 9893 9889 9886 9885 9883 9881 9879 9876 9873 9868 9866 9864 9862 9860 9860 9858 9856 9857 9857 9857 9858 9857 9859 9860 9860 9859 9858 9860 9862 9858 9856 9860 9862 9857 9851 9853 9856 9860 9863 9863 9864 9868 9871
10011 10007 10002 9998 9995 9991 9987 9983 9979 9975 9971 9967 9963 9959 9955 9951 9948 9944 9941 9938 9934 9930 9926 9922 9918 9914 9910 9908 9906 9903 9897 9892 9887 9883 9877 9873 9869 9865 9866 9872 9876 9875 9871 9868 9866 9864 9861 9859 9858 9856 9852 9847 9843 9841 9838 9837 9836 9834 9832 9833 9834 9836 9836 9837 9839 9839 9839 9839 9837 9838 9840 9835 9831 9834 9838 9834 9828 9829 9834 9837 9841 9843 9842 9845 9848
9994 9990 9985 9981 9977 9973 9969 9966 9961 9957 9953 9949 9945 9941 9937 9934 9930 9925 9922 9919 9915 9911 9907 9903 9899 9895 9890 9887 9886 9883 9877 9871 9867 9863 9858 9852 9848 9845 9846 9849 9851 9851 9850 9848 9846 9844 9841 9838 9836 9834 9831 9826 9822 9818 9815 9814 9812 9810 9810 9811 9813 9816 9818 9819 9820 9818 9817 9817 9816 9817 9817 9814 9809 9809 9813 9813 9807 9804 9808 9813 9820 9824 9823 9824 9827
9979 9974 9970 9965 9961 9957 9953 9950 9945 9940 9936 9932 9927 9923 9919 9916 9912 9907 9903 9900 9895 9891 9888 9884 9880 9876 9872 9868 9865 9863 9858 9851 9847 9843 9838 9832 9828 9827 9827 9828 9828 9829 9829 9827 9825 9824 9823 9819 9814 9812 9810 9807 9802 9796 9791 9789 9787 9787 9790 9794 9796 9800 9802 9801 9799 9796 9796 9795 9793 9793 9794 9793 9790 9787 9789 9790 9786 9783 9785 9792 9802 9804 9802 9805 9808
9962 9958 9953 9949 9944 9940 9937 9933 9929 9924 9919 9915 9910 9906 9902 9898 9893 9889 9885 9881 9877 9872 9868 9865 9860 9856 9853 9849 9845 9843 9839 9832 9827 9824 9819 9812 9808 9808 9808 9808 9808 9809 9808 9807 9805 9803 9800 9797 9794 9792 9791 9787 9781 9773 9768 9765 9764 9767 9773 9778 9781 9784 9784 9781 9778 9776 9775 9772 9770 9769 9769 9769 9768 9766 9767 9768 9767 9765 9766 9773 9782 9782 9780 9785 9790
9946 9941 9937 9931 9927 9923 9919 9915 9911 9907 9901 9896 9891 9887 9883 9878 9873 9869 9865 9861 9857 9853 9848 9844 9840 9835 9832 9829 9825 9822 9818 9813 9807 9803 9799 9792 9788 9787 9789 9790 9790 9789 9788 9787 9784 9781 9778 9776 9774 9772 9770 9765 9758 9753 9749 9747 9747 9753 9759 9763 9764 9764 9762 9760 9758 9756 9754 9750 9747 9747 9747 9747 9746 9746 9749 9749 9747 9747 9747 9754 9762 9761 9759 9765 9771
9930 9925 9920 9915 9910 9905 9901 9896 9892 9887 9882 9877 9872 9867 9862 9858 9853 9848 9844 9840 9837 9833 9828 9823 9819 9814 9810 9807 9803 9800 9797 9794 9788 9784 9779 9773 9768 9767 9770 9773 9773 9771 9769 9767 9763 9760 9758 9755 9752 9749 9748 9744 9740 9736 9732 9730 9735 9742 9746 9746 9743 9740 9740 9740 9737 9735 9732 9729 9728 9728 9727 9727 9727 9728 9729 9728 9727 9728 9730 9734 9740 9742 9743 9748 9751
9912 9907 9902 9896 9891 9886 9881 9877 9872 9867 9863 9858 9853 9847 9842 9838 9833 9828 9824 9820 9816 9813 9808 9803 9800 9796 9790 9785 9781 9778 9776 9774 9770 9764 9759 9754 9748 9747 9752 9755 9754 9752 9750 9747 9744 9740 9736 9733 9730 9728 9727 9725 9722 9718 9714 9716 9723 9727 9726 9723 9722 9722 9723 9721 9716 9714 9713 9710 9709 9709 9709 9709 9710 9709 9709 9708 9708 9711 9712 9713 9717 9722 9728 9731 9732
9892 9887 9882 9877 9872 9867 9862 9857 9853 9848 9843 9839 9834 9829 9823 9818 9814 9809 9805 9801 9797 9793 9789 9784 9780 9776 9770 9764 9760 9757 9754 9753 9750 9745 9739 9734 9729 9728 9732 9735 9734 9732 9731 9729 9725 9721 9715 9711 9709 9708 9706 9705 9704 9701 9700 9702 9707 9706 9702 9703 9707 9707 9705 9701 9696 9695 9695 9692 9691 9691 9691 9693 9692 9690 9689 9690 9691 9693 9693 9695 9699 9704 9709 9712 9713
9875 9869 9864 9858 9853 9847 9842 9838 9832 9828 9823 9819 9815 9811 9805 9799 9795 9790 9786 9783 9778 9774 9769 9765 9760 9756 9750 9744 9740 9737 9734 9732 9730 9725 9719 9714 9710 9708 9712 9716 9714 9713 9713 9711 9707 9703 9697 9693 9689 9687 9686 9686 9685 9686 9687 9686 9686 9686 9685 9687 9690 9688 9684 9681 9680 9679 9677 9676 9675 9675 9675 9674 9672 9669 9669 9672 9675 9675 9676 9679 9683 9686 9689 9692 9695
9859 9853 9847 9841 9835 9829 9824 9819 9813 9807 9803 9799 9795 9791 9786 9780 9775 9771 9767 9764 9761 9756 9751 9746 9742 9737 9732 9727 9722 9718 9715 9713 9710 9706 9701 9696 9692 9690 9693 9697 9696 9694 9695 9695 9691 9686 9680 9676 9671 9668 9666 9666 9667 9671 9672 9668 9666 9668 9669 9670 9670 9668 9666 9666 9665 9664 9662 9660 9658 9657 9657 9655 9652 9651 9652 9655 9657 9658 9659 9663 9667 9668 9671 9675 9677
9842 9836 9829 9823 9817 9812 9806 9800 9794 9789 9784 9780 9775 9771 9766 9761 9756 9752 9749 9746 9743 9739 9733 9728 9724 9720 9716 9711 9704 9700 9697 9694 9691 9687 9684 9680 9676 9673 9674 9678 9678 9677 9678 9678 9675 9669 9664 9659 9655 9650 9647 9648 9652 9654 9654 9652 9650 9650 9650 9651 9652 9651 9651 9651 9651 9650 9647 9643 9641 9640 9640 9637 9635 9636 9637 9638 9639 9640 9643 9647 9651 9653 9654 9657 9658
9824 9817 9810 9805 9800 9794 9788 9782 9776 9771 9766 9762 9758 9753 9748 9744 9739 9734 9730 9727 9724 9720 9716 9711 9707 9703 9700 9695 9689 9683 9679 9676 9672 9670 9667 9665 9662 9659 9658 9659 9660 9660 9661 9660 9656 9653 9648 9643 9638 9634 9631 9633 9636 9637 9637 9637 9635 9633 9631 9632 9634 9635 9636 9637 9637 9635 9632 9628 9625 9624 9623 9621 9621 9621 9622 9623 9623 9624 9627 9631 9634 9636 9637 9638 9639
9806 9799 9793 9788 9783 9777 9772 9766 9760 9754 9749 9744 9740 9736 9732 9727 9722 9717 9713 9709 9705 9702 9698 9693 9689 9686 9683 9678 9672 9666 9661 9658 9655 9653 9652 9651 9649 9646 9645 9643 9642 9642 9643 9641 9639 9636 9633 9628 9624 9619 9617 9619 9621 9621 9621 9621 9619 9618 9616 9616 9617 9619 9621 9622 9621 9619 9617 9613 9610 9609 9609 9608 9608 9608 9609 9610 9609 9610 9613 9615 9617 9618 9619 9621 9623
9790 9784 9778 9772 9767 9761 9756 9751 9744 9738 9732 9728 9723 9719 9715 9711 9707 9702 9697 9693 9689 9684 9680 9676 9672 9669 9665 9660 9655 9650 9645 9642 9639 9637 9637 9637 9636 9634 9632 9629 9625 9624 9624 9624 9624 9621 9616 9611 9608 9605 9603 9605 9608 9608 9605 9603 9602 9603 9603 9602 9602 9604 9605 9606 9605 9603 9601 9598 9596 9595 9596 9596 9595 9595 9596 9597 9597 9597 9598 9600 9601 9601 9603 9605 9607
9774 9769 9763 9757 9751 9746 9740 9735 9729 9723 9718 9712 9707 9703 9699 9694 9691 9687 9682 9678 9675 9670 9664 9659 9655 9652 9648 9642 9637 9634 9630 9627 9625 9623 9623 9623 9622 9619 9617 9615 9612 9609 9607 9607 9608 9605 9598 9594 9594 9595 9593 9594 9594 9592 9589 9586 9586 9588 9589 9589 9589 9590 9590 9590 9589 9587 9585 9584 9582 9582 9584 9584 9583 9583 9584 9584 9584 9584 9585 9586 9586 9587 9588 9590 9591
9758 9753 9748 9742 9736 9731 9725 9720 9714 9709 9703 9698 9692 9687 9683 9679 9675 9671 9667 9663 9660 9656 9650 9644 9639 9635 9631 9627 9622 9618 9615 9612 9611 9611 9609 9608 9606 9604 9603 9601 9598 9594 9591 9591 9591 9587 9583 9582 9584 9586 9584 9580 9576 9574 9573 9572 9573 9574 9575 9575 9575 9576 9575 9574 9574 9572 9571 9570 9569 9570 9571 9572 9571 9571 9572 9571 9570 9571 9573 9573 9574 9574 9574 9575 9576
9743 9737 9732 9727 9722 9717 9711 9705 9699 9694 9689 9684 9678 9672 9667 9663 9661 9659 9654 9649 9644 9641 9637 9631 9625 9620 9616 9612 9609 9606 9602 9599 9597 9597 9596 9595 9593 9590 9587 9585 9583 9580 9577 9576 9575 9572 9570 9571 9573 9572 9568 9563 9559 9558 9560 9561 9561 9562 9562 9561 9562 9562 9562 9561 9559 9558 9558 9558 9557 9557 9558 9559 9559 9559 9558 9558 9558 9559 9561 9562 9561 9561 9561 9561 9562
9729 9723 9717 9712 9707 9702 9696 9690 9685 9679 9674 9670 9665 9659 9653 9648 9646 9646 9644 9638 9632 9627 9622 9617 9611 9607 9603 9599 9595 9593 9591 9588 9584 9583 9583 9582 9580 9576 9572 9569 9569 9567 9564 9562 9561 9560 9558 9558 9559 9556 9553 9550 9547 9547 9548 9549 9549 9549 9549 9548 9548 9548 9548 9548 9547 9546 9547 9547 9546 9545 9545 9546 9545 9545 9546 9546 9547 9548 9550 9550 9549 9549 9549 9549 9550
9716 9709 9703 9698 9693 9687 9682 9677 9671 9666 9661 9656 9651 9646 9640 9634 9630 9630 9630 9627 9621 9614 9608 9603 9598 9594 9591 9587 9582 9579 9578 9576 9573 9571 9569 9569 9566 9563 9559 9557 9555 9553 9551 9549 9548 9547 9545 9545 9545 9544 9542 9539 9537 9536 9536 9537 9537 9537 9537 9536 9536 9535 9535 9535 9535 9536 9536 9535 9534 9534 9533 9533 9533 9533 9534 9535 9536 9537 9539 9538 9537 9537 9538 9539 9539
9703 9697 9691 9685 9680 9675 9669 9664 9659 9654 9649 9643 9638 9633 9628 9622 9616 9613 9613 9614 9610 9602 9594 9589 9585 9582 9579 9575 9571 9567 9565 9563 9562 9559 9557 9555 9552 9550 9549 9546 9542 9540 9538 9537 9536 9535 9533 9534 9534 9533 9530 9528 9526 9525 9525 9525 9526 9526 9525 9524 9524 9524 9523 9522 9523 9524 9525 9524 9523 9522 9521 9521 9521 9522 9523 9524 9525 9526 9527 9526 9526 9526 9527 9528 9528
9691 9685 9679 9673 9668 9663 9657 9652 9647 9642 9636 9631 9626 9621 9616 9611 9606 9601 9598 9598 9597 9592 9584 9576 9573 9571 9568 9564 9560 9556 9553 9551 9550 9548 9545 9542 9540 9538 9537 9535 9532 9529 9526 9525 9524 9524 9524 9523 9523 9522 9520 9519 9517 9515 9514 9514 9514 9514 9513 9512 9513 9513 9512 9511 9511 9512 9513 9513 9511 9511 9510 9510 9511 9512 9513 9514 9514 9515 9515 9515 9515 9516 9516 9517 9518
9680 9674 9669 9663 9657 9652 9647 9642 9636 9631 9625 9621 9616 9611 9605 9601 9596 9592 9587 9584 9583 9580 9575 9567 9561 9559 9557 9554 9549 9546 9543 9540 9538 9536 9534 9531 9529 9527 9525 9523 9521 9518 9516 9514 9513 9513 9513 9512 9511 9511 9510 9508 9506 9504 9502 9502 9503 9503 9503 9502 9502 9501 9501 9500 9500 9501 9502 9501 9500 9500 9500 9500 9501 9502 9504 9504 9504 9504 9505 9505 9505 9506 9506 9507 9508
9670 9664 9658 9653 9647 9642 9637 9632 9627 9621 9616 9611 9606 9600 9595 9591 9586 9582 9578 9574 9570 9568 9564 9559 9553 9549 9546 9543 9539 9536 9534 9531 9528 9526 9523 9521 9519 9516 9514 9512 9510 9508 9507 9505 9504 9503 9502 9501 9500 9500 9499 9498 9496 9494 9493 9493 9494 9494 9493 9492 9491 9490 9490 9490 9490 9490 9490 9491 9491 9491 9491 9491 9492 9493 9494 9494 9494 9494 9495 9496 9495 9496 9497 9497 9498
9659 9654 9648 9643 9637 9632 9627 9622 9617 9611 9606 9600 9595 9590 9585 9581 9576 9572 9568 9564 9560 9557 9553 9549 9545 9540 9536 9532 9529 9527 9524 9521 9519 9516 9513 9511 9509 9507 9504 9502 9500 9499 9498 9496 9495 9493 9492 9490 9490 9490 9489 9489 9487 9486 9485 9485 9484 9484 9483 9482 9481 9481 9481 9480 9480 9480 9481 9482 9482 9483 9483 9482 9483 9483 9484 9484 9485 9485 9485 9486 9486 9487 9487 9488 9488
9649 9643 9637 9632 9627 9622 9617 9612 9607 9602 9596 9591 9586 9581 9576 9571 9567 9563 9559 9555 9551 9547 9544 9540 9536 9532 9528 9524 9520 9518 9515 9512 9510 9507 9505 9502 9499 9497 9495 9494 9492 9490 9489 9488 9486 9485 9483 9481 9481 9480 9480 9480 9479 9477 9476 9476 9475 9475 9475 9473 9473 9472 9472 9472 9472 9472 9473 9473 9474 9474 9474 9473 9474 9474 9475 9475 9476 9476 9476 9477 9477 9478 9478 9479 9479
9640 9634 9628 9623 9617 9612 9607 9602 9598 9593 9588 9583 9578 9573 9568 9563 9558 9554 9550 9546 9542 9539 9535 9531 9527 9523 9520 9516 9513 9510 9507 9504 9502 9499 9496 9494 9491 9489 9487 9485 9484 9482 9481 9479 9478 9476 9475 9473 9472 9471 9471 9471 9471 9469 9468 9468 9468 9468 9467 9466 9465 9465 9464 9464 9465 9464 9465 9465 9465 9465 9466 9465 9465 9466 9467 9467 9468 9468 9468 9468 9469 9469 9470 9470 9471
9631 9626 9620 9615 9609 9604 9599 9594 9589 9584 9579 9575 9570 9565 9560 9555 9551 9546 9542 9538 9534 9530 9527 9523 9519 9516 9512 9508 9505 9502 9499 9497 9494 9491 9489 9486 9484 9481 9479 9478 9476 9474 9473 9472 9470 9469 9467 9466 9465 9464 9464 9464 9463 9462 9461 9461 9461 9460 9459 9458 9458 9457 9457 9457 9457 9457 9457 9457 9458 9458 9458 9458 9458 9458 9459 9459 9459 9460 9460 9460 9461 9462 9462 9463 9464
9622 9616 9611 9606 9601 9596 9591 9586 9581 9576 9571 9567 9562 9557 9553 9548 9544 9539 9535 9531 9527 9523 9519 9516 9512 9508 9505 9501 9498 9495 9492 9490 9487 9484 9482 9479 9477 9475 9473 9471 9469 9467 9466 9465 9463 9462 9460 9459 9458 9457 9456 9456 9456 9455 9454 9454 9453 9453 9452 9451 9451 9450 9450 9450 9450 9450 9451 9451 9451 9451 9451 9451 9451 9451 9451 9452 9452 9452 9453 9454 9454 9455 9456 9456 9457
9613 9608 9603 9598 9593 9588 9583 9578 9573 9568 9564 9559 9554 9550 9545 9541 9536 9532 9528 9524 9520 9516 9512 9509 9505 9502 9498 9495 9492 9489 9486 9483 9481 9478 9475 9473 9470 9468 9466 9465 9463 9461 9460 9458 9457 9455 9453 9452 9451 9451 9450 9450 9449 9449 9448 9447 9447 9446 9445 9445 9444 9444 9444 9444 9444 9444 9444 9445 9445 9445 9445 9445 9445 9445 9445 9445 9446 9446 9447 9447 9448 9449 9450 9450 9451
9606 9601 9596 9591 9585 9580 9576 9571 9566 9561 9557 9552 9548 9543 9539 9534 9530 9526 9522 9518 9514 9510 9506 9503 9499 9496 9492 9489 9486 9483 9480 9478 9475 9473 9470 9467 9465 9463 9461 9459 9457 9455 9454 9452 9451 9450 9448 9446 9445 9445 9444 9444 9443 9443 9442 9442 9441 9440 9439 9439 9438 9438 9439 9439 9439 9438 9439 9439 9439 9439 9439 9439 9439 9439 9439 9439 9440 9440 9441 9442 9442 9443 9444 9444 9445
9599 9593 9588 9583 9578 9574 9569 9564 9560 9555 9550 9546 9541 9537 9532 9528 9524 9520 9516 9512 9508 9504 9501 9497 9494 9491 9487 9484 9481 9478 9475 9472 9470 9467 9465 9462 9459 9457 9455 9454 9452 9450 9448 9447 9446 9444 9443 9441 9440 9440 9439 9439 9438 9437 9437 9436 9435 9435 9434 9433 9433 9433 9433 9433 9433 9433 9433 9433 9433 9433 9433 9433 9433 9433 9434 9434 9434 9435 9435 9436 9437 9437 9438 9439 9439
9592 9587 9582 9577 9573 9568 9563 9558 9554 9549 9544 9540 9535 9531 9527 9523 9519 9515 9511 9507 9503 9499 9496 9492 9489 9486 9483 9479 9476 9473 9470 9468 9465 9463 9460 9458 9455 9453 9451 9449 9447 9446 9444 9442 9441 9440 9438 9437 9436 9435 9434 9433 9433 9432 9431 9431 9430 9429 9429 9428 9428 9428 9428 9428 9428 9428 9428 9428 9428 9428 9428 9428 9428 9428 9428 9429 9429 9429 9430 9431 9431 9432 9433 9433 9434
9587 9582 9577 9572 9567 9563 9558 9553 9548 9544 9539 9535 9530 9526 9522 9518 9514 9510 9506 9503 9499 9495 9491 9488 9485 9481 9478 9475 9472 9469 9466 9464 9461 9459 9456 9454 9451 9449 9447 9445 9443 9442 9440 9438 9437 9435 9434 9433 9432 9431 9430 9429 9428 9427 9427 9426 9426 9425 9424 9424 9423 9423 9424 9424 9424 9423 9423 9423 9423 9423 9424 9424 9424 9424 9424 9424 9424 9425 9426 9426 9427 9427 9428 9429 9430
9581 9576 9572 9567 9562 9557 9553 9548 9543 9539 9535 9530 9526 9522 9518 9514 9510 9506 9503 9499 9495 9491 9488 9484 9481 9477 9474 9471 9468 9465 9463 9460 9457 9455 9453 9450 9448 9446 9444 9442 9440 9438 9437 9435 9433 9432 9431 9429 9428 9427 9426 9425 9424 9424 9423 9422 9422 9421 9421 9420 9420 9420 9420 9419 9419 9419 9419 9419 9419 9419 9420 9420 9420 9420 9420 9420 9420 9421 9421 9422 9423 9423 9424 9425 9426
9576 9572 9567 9562 9557 9552 9548 9544 9539 9535 9531 9526 9522 9518 9514 9510 9506 9503 9499 9495 9492 9488 9484 9481 9477 9474 9471 9468 9465 9462 9459 9457 9454 9452 9449 9447 9445 9443 9441 9439 9437 9435 9434 9432 9430 9429 9428 9426 9425 9424 9423 9422 9421 9420 9419 9419 9418 9418 9417 9417 9416 9416 9416 9416 9416 9416 9415 9415 9415 9416 9416 9416 9416 9416 9416 9416 9416 9417 9417 9418 9419 9419 9420 9421 9421
9572 9567 9563 9558 9553 9549 9544 9540 9536 9531 9527 9523 9519 9515 9511 9507 9503 9499 9496 9492 9489 9485 9481 9478 9475 9472 9468 9465 9463 9460 9457 9454 9452 9449 9447 9445 9442 9440 9438 9436 9435 9433 9431 9429 9428 9426 9425 9424 9422 9421 9420 9419 9418 9417 9417 9416 9415 9415 9414 9413 9413 9413 9413 9413 9412 9412 9412 9412 9412 9412 9412 9413 9413 9413 9413 9413 9413 9413 9414 9414 9415 9416 9416 9417 9417
9568 9563 9558 9554 9550 9545 9541 9536 9532 9528 9524 9520 9516 9512 9508 9504 9500 9497 9493 9489 9486 9482 9479 9476 9472 9469 9466 9463 9460 9458 9455 9452 9450 9447 9445 9442 9440 9438 9436 9434 9433 9431 9429 9427 9426 9424 9423 9422 9420 9419 9418 9416 9416 9415 9414 9413 9413 9412 9411 9411 9410 9410 9410 9410 9410 9409 9409 9409 9409 9409 9410 9410 9410 9410 9410 9410 9410 9410 9411 9411 9412 9412 9413 9413 9414
9564 9559 9554 9550 9546 9541 9537 9533 9529 9525 9521 9517 9513 9509 9505 9501 9498 9494 9491 9487 9484 9480 9477 9474 9470 9467 9464 9461 9458 9456 9453 9450 9448 9446 9443 9441 9439 9437 9435 9433 9431 9429 9427 9426 9424 9422 9421 9420 9419 9417 9416 9415 9414 9413 9412 9411 9410 9410 9409 9409 9408 9408 9408 9408 9407 9407 9407 9407 9407 9407 9407 9407 9407 9407 9407 9407 9407 9408 9408 9408 9409 9409 9410 9410 9411